Location: Kikino
(54.4440°N, 112.0940°W)
Time: 00:53:53
(UTC+00:00)

ISS - Pass Details

Date: 24 April 2024
Orbit: 409 x 414 km, 51.6° (Epoch: 23 May)

Event Time Altitude Azimuth Distance (km) Brightness Sun altitude
Exits shadow 11:13:32 - 200° (SSW) 1,827 -1.0 -7.2°
Reaches altitude 10° 11:14:41 10° 188° (S) 1,474 -1.4 -7.1°
Maximum altitude 11:16:51 16° 147° (SSE) 1,148 -1.5 -6.8°
Drops below altitude 10° 11:19:01 10° 106° (ESE) 1,477 -0.4 -6.6°
Sets 11:21:38 0° 84° (E) 2,342 1.3 -6.2°
